Temp
68 68 67 67 66 66 66 65 65 65 65 66 66 66 65 65 65 65 65 66 66 67 67 66 67 67 80 80 78 87 78 80 85 84 82 80 78 73 67 66 65 63 60 61 60 60 60
68 67 67 66 66 66 66 65 65 65 65 65 65 65 65 65 64 64 65 65 66 66 65 66 67 66 82 74 84 86 86 84 83 83 79 80 78 77 67 62 63 62 62 60 60 60 59
67 67 67 67 66 66 66 65 65 64 64 64 65 65 65 64 64 64 64 64 65 65 65 66 68 79 80 76 86 87 84 79 80 81 76 77 79 75 70 61 64 63 58 60 60 60 57
67 67 67 67 66 66 65 65 64 64 64 64 65 64 64 63 63 63 64 64 63 64 65 67 67 82 76 83 88 84 86 83 84 82 77 78 78 69 67 67 63 61 61 59 58 59 56
67 67 67 66 66 66 65 65 64 64 64 64 64 63 63 63 63 63 63 63 64 67 68 69 80 81 73 80 80 82 84 80 80 80 79 78 75 67 64 64 62 60 62 57 55 59 57
66 66 66 65 65 65 65 65 64 64 63 63 63 62 62 62 62 63 62 63 67 71 76 81 81 75 76 74 78 79 83 81 78 76 75 74 72 69 67 66 60 60 59 58 57 57 55
65 64 64 64 64 64 65 65 64 64 63 63 62 62 61 62 62 62 72 83 80 77 78 75 75 73 74 77 79 77 78 79 78 75 69 68 68 65 63 62 61 60 58 57 57 55 54
64 64 64 64 64 64 64 64 64 63 63 62 62 62 61 61 61 61 73 78 71 72 71 73 74 74 76 78 72 74 79 73 71 67 67 67 64 62 62 60 59 58 58 58 55 54 54
64 64 63 63 63 63 63 63 64 63 62 62 62 61 61 61 60 72 75 71 75 76 71 70 73 73 73 76 70 70 74 72 68 64 64 63 61 61 60 58 57 58 56 55 54 53 54
63 63 63 62 62 62 62 62 63 63 63 62 61 61 61 60 69 73 74 74 76 76 67 65 67 71 73 73 66 72 73 71 66 63 62 62 61 59 58 57 58 55 55 54 52 53 55
62 62 62 62 61 61 61 61 61 62 62 63 61 60 60 60 71 74 73 75 76 76 52 64 67 77 72 69 67 67 71 71 64 61 62 58 57 57 57 56 57 54 54 53 52 53 52
61 61 61 61 61 60 60 60 61 61 61 62 61 60 59 67 72 73 75 74 76 63 51 60 66 65 66 66 66 67 68 70 66 61 61 57 60 59 58 56 56 55 53 52 51 53 52
60 60 60 60 61 59 59 60 60 60 61 61 61 60 61 68 73 73 74 77 63 55 64 60 61 64 64 62 62 64 62 62 61 56 57 55 55 57 58 55 56 55 54 54 52 53 54
60 59 59 59 60 60 59 59 59 60 59 59 59 58 64 69 73 71 76 70 53 58 60 63 62 61 61 63 61 61 60 60 59 60 59 57 53 54 56 55 54 54 54 53 45 51 53
60 59 58 58 59 59 59 59 59 59 58 57 57 72 71 73 70 71 72 58 60 61 64 61 60 59 59 60 61 60 60 60 61 61 58 56 52 53 53 55 55 52 53 52 49 47 49
59 59 58 58 57 57 57 58 58 58 58 56 66 68 70 70 71 73 67 56 61 63 64 63 59 61 58 59 58 59 59 60 57 57 60 58 53 51 51 54 53 52 54 51 53 42 45
59 59 58 58 57 56 56 57 58 57 57 57 66 65 69 70 72 69 59 61 61 65 66 63 61 59 60 59 60 59 60 57 58 55 59 59 56 49 51 50 53 50 53 50 50 50 48
60 59 59 58 58 56 56 56 57 57 55 59 64 59 68 70 63 61 59 60 57 64 64 64 64 63 61 60 59 58 59 59 58 60 56 57 57 53 51 50 52 52 53 55 50 46 47
60 59 59 58 58 56 55 55 56 56 55 63 62 63 68 69 56 56 57 57 60 61 63 63 62 63 63 61 57 58 57 54 55 57 57 57 54 52 49 48 50 49 51 51 48 49 46
60 59 59 59 58 56 55 55 55 55 55 60 60 56 62 64 59 59 57 57 57 61 63 64 63 64 61 59 58 57 57 53 54 56 53 57 55 56 52 54 54 48 46 48 53 47 50
60 60 59 59 58 56 55 55 55 55 55 58 58 55 56 53 55 58 58 57 56 56 61 63 60 62 62 57 57 57 56 53 53 54 54 57 53 53 55 54 50 53 51 46 42 55 50
59 59 59 59 58 57 56 55 55 54 54 55 55 53 53 52 51 54 52 55 56 58 59 58 58 62 63 59 62 60 59 57 59 52 55 53 53 49 51 50 49 46 51 52 50 50 52
59 59 59 58 58 57 56 55 54 54 53 52 57 55 58 47 50 51 54 57 56 61 61 62 63 61 58 61 64 62 63 60 62 58 54 53 52 48 50 49 47 46 51 53 51 51 54
59 59 58 58 58 57 56 55 54 54 53 52 59 60 55 48 50 52 53 54 55 57 59 59 60 60 57 60 61 62 58 56 56 52 56 52 52 48 48 49 42 58 53 56 53 56 55
59 58 58 58 58 57 56 56 55 54 53 53 54 55 54 47 52 52 51 53 54 56 56 58 57 57 61 59 54 51 52 51 50 47 50 52 53 41 44 46 55 59 48 49 52 59 60
59 59 58 58 57 57 56 56 55 55 54 52 53 55 54 51 49 56 53 55 54 55 53 52 54 57 57 55 49 44 45 52 46 44 47 47 51 48 41 39 42 58 54 53 55 55 59
58 58 58 58 57 57 56 56 55 55 54 52 52 55 51 46 56 55 52 53 58 55 55 53 52 51 53 47 46 46 48 53 47 46 42 43 42 39 45 42 51 59 53 53 50 56 60
57 58 58 57 57 56 56 56 55 55 54 51 51 54 50 47 54 54 55 54 53 55 52 51 51 50 46 43 47 50 48 53 51 53 47 45 39 39 43 38 41 52 49 53 61 60 59
57 57 57 57 57 56 56 56 55 55 54 51 47 53 52 47 50 53 55 56 56 59 58 51 53 53 57 51 49 53 46 48 51 48 47 45 54 50 50 53 57 56 55 56 56 57 59
MSLP
1022.11 1022.06 1021.93 1021.85 1021.74 1021.59 1021.43 1021.27 1021.06 1020.79 1020.47 1020.19 1019.95 1019.71 1019.47 1019.20 1018.92 1018.58 1018.25 1017.96 1017.60 1017.36 1017.15 1016.93 1016.69 1016.51 1016.12 1015.18 1015.34 1015.45 1015.44 1015.20 1014.98 1014.90 1014.71 1014.64 1014.65 1015.42 1016.30 1017.46 1018.19 1018.61 1019.86 1020.60 1021.28 1021.60 1021.89
1021.80 1021.87 1021.91 1021.89 1021.81 1021.73 1021.59 1021.44 1021.29 1021.03 1020.69 1020.37 1020.05 1019.74 1019.44 1019.13 1018.87 1018.51 1018.09 1017.74 1017.46 1017.20 1017.00 1016.80 1016.61 1016.42 1015.83 1015.29 1015.80 1015.64 1015.35 1015.09 1015.09 1014.93 1015.12 1015.15 1015.20 1015.91 1017.10 1018.24 1018.70 1019.65 1020.06 1020.83 1021.43 1021.74 1022.21
1021.69 1021.68 1021.69 1021.74 1021.77 1021.74 1021.68 1021.54 1021.34 1021.15 1020.88 1020.51 1020.19 1019.83 1019.51 1019.13 1018.68 1018.35 1018.02 1017.62 1017.18 1017.01 1016.87 1016.64 1016.50 1016.05 1015.55 1015.93 1015.85 1015.75 1015.58 1015.68 1015.56 1015.20 1015.53 1016.13 1016.10 1016.23 1017.60 1018.68 1019.75 1019.76 1019.90 1020.59 1021.15 1021.57 1022.10
1021.49 1021.60 1021.62 1021.67 1021.71 1021.73 1021.71 1021.59 1021.42 1021.24 1020.99 1020.59 1020.25 1019.85 1019.49 1019.09 1018.70 1018.20 1017.66 1017.33 1017.05 1016.66 1016.52 1016.58 1016.36 1015.80 1015.57 1016.03 1015.98 1016.00 1015.74 1015.84 1015.86 1016.02 1016.21 1016.85 1016.85 1017.29 1018.08 1019.11 1019.29 1019.03 1019.20 1019.20 1020.63 1021.32 1022.23
1021.05 1021.30 1021.45 1021.53 1021.56 1021.57 1021.56 1021.50 1021.39 1021.22 1021.08 1020.76 1020.40 1019.95 1019.47 1018.97 1018.51 1018.02 1017.48 1017.05 1016.71 1016.46 1016.45 1016.35 1016.19 1015.63 1015.67 1016.11 1016.02 1016.13 1016.03 1015.78 1016.08 1016.29 1016.67 1016.94 1016.98 1017.76 1018.70 1017.92 1017.90 1018.15 1017.52 1018.52 1019.89 1020.96 1021.56
1021.11 1021.19 1021.33 1021.47 1021.50 1021.43 1021.39 1021.31 1021.27 1021.19 1020.97 1020.67 1020.26 1019.88 1019.45 1018.95 1018.33 1017.69 1017.14 1016.76 1016.38 1016.30 1016.16 1016.15 1015.95 1016.00 1016.04 1015.90 1016.20 1016.29 1016.23 1016.18 1016.03 1016.19 1016.28 1016.39 1016.71 1016.94 1017.43 1017.23 1016.50 1016.85 1017.26 1018.24 1018.89 1020.38 1021.18
1021.37 1021.37 1021.49 1021.51 1021.53 1021.43 1021.26 1021.13 1021.04 1021.00 1020.79 1020.58 1020.24 1019.80 1019.25 1018.62 1018.01 1017.59 1016.42 1016.28 1016.37 1016.22 1015.86 1015.56 1015.52 1015.46 1015.75 1016.26 1016.44 1016.38 1016.41 1016.18 1016.10 1015.96 1015.70 1016.36 1016.23 1016.34 1016.95 1017.47 1017.52 1017.45 1017.60 1017.99 1018.96 1020.32 1020.64
1021.37 1021.54 1021.63 1021.58 1021.51 1021.31 1021.07 1020.95 1020.79 1020.75 1020.60 1020.40 1020.08 1019.65 1019.16 1018.47 1017.85 1017.39 1016.91 1016.33 1017.40 1017.66 1016.22 1015.97 1015.79 1015.81 1015.86 1015.93 1016.17 1016.47 1016.67 1016.24 1016.02 1015.76 1016.30 1016.41 1016.41 1017.47 1017.85 1018.05 1018.04 1017.91 1017.84 1018.06 1019.23 1020.18 1020.45
1021.53 1021.59 1021.62 1021.57 1021.33 1021.18 1021.04 1020.77 1020.65 1020.63 1020.56 1020.27 1019.98 1019.55 1018.99 1018.18 1017.44 1016.98 1017.05 1017.53 1017.53 1017.42 1016.38 1016.01 1016.00 1015.79 1016.09 1016.16 1016.19 1016.54 1016.77 1016.47 1016.18 1016.26 1016.41 1016.50 1017.63 1018.13 1018.24 1018.39 1018.31 1018.24 1018.32 1018.62 1019.09 1019.69 1019.89
1021.63 1021.59 1021.58 1021.43 1021.49 1021.42 1021.10 1020.64 1020.45 1020.49 1020.47 1020.27 1019.92 1019.61 1019.00 1017.94 1017.54 1017.60 1017.09 1017.42 1017.24 1016.97 1016.14 1016.03 1016.02 1016.15 1016.22 1016.22 1016.69 1017.02 1017.07 1017.05 1016.84 1016.71 1017.05 1017.34 1018.31 1018.54 1018.51 1018.63 1018.84 1018.69 1019.34 1019.34 1019.21 1018.99 1018.24
1021.72 1021.57 1021.59 1021.56 1021.60 1021.50 1021.23 1020.83 1020.43 1020.22 1020.11 1020.10 1020.01 1019.71 1019.26 1018.57 1017.98 1017.36 1017.49 1017.37 1016.97 1016.59 1015.56 1016.11 1016.07 1016.39 1016.32 1016.34 1016.92 1017.27 1017.54 1017.00 1017.02 1017.34 1017.78 1018.12 1018.54 1018.88 1018.94 1019.13 1019.44 1019.65 1019.82 1019.60 1019.17 1018.39 1018.01
1021.72 1021.65 1021.61 1021.55 1021.63 1021.60 1021.34 1020.96 1020.64 1020.35 1020.01 1019.76 1019.71 1019.64 1019.47 1018.61 1017.97 1017.54 1017.39 1017.05 1016.71 1016.06 1015.26 1015.81 1015.94 1016.09 1016.13 1016.45 1016.68 1017.09 1017.24 1017.41 1017.96 1017.74 1017.92 1018.57 1019.33 1019.47 1019.63 1020.09 1020.01 1020.14 1019.74 1019.35 1018.84 1017.77 1016.78
1021.51 1021.64 1021.47 1021.37 1021.30 1021.35 1021.42 1021.19 1020.72 1020.32 1020.07 1019.83 1019.52 1019.33 1019.45 1018.89 1017.78 1017.65 1017.21 1016.45 1015.99 1015.12 1015.54 1015.75 1015.82 1015.80 1016.03 1016.17 1016.49 1016.52 1016.87 1017.18 1017.33 1017.39 1017.52 1018.63 1019.29 1019.92 1020.27 1020.05 1020.34 1020.02 1019.04 1017.81 1017.11 1016.28 1015.76
1021.14 1021.35 1021.42 1021.34 1021.18 1021.17 1021.06 1021.06 1020.83 1020.50 1020.12 1019.89 1019.39 1019.04 1018.71 1018.34 1018.05 1017.82 1016.82 1015.97 1015.30 1015.11 1015.16 1015.63 1015.78 1016.00 1015.53 1016.01 1016.33 1016.44 1016.55 1016.69 1017.29 1017.30 1017.45 1017.74 1019.12 1020.06 1020.53 1020.34 1020.06 1019.67 1019.18 1018.06 1017.05 1015.92 1015.63
1020.88 1020.95 1021.10 1021.08 1021.03 1021.17 1021.13 1020.97 1020.85 1020.57 1020.16 1019.63 1019.06 1018.31 1018.25 1017.96 1018.06 1017.73 1016.46 1015.48 1014.47 1014.80 1015.02 1015.34 1015.83 1015.65 1015.78 1016.06 1016.32 1016.42 1016.38 1016.35 1016.71 1017.24 1017.32 1017.73 1019.07 1020.48 1021.09 1021.05 1020.76 1020.19 1019.45 1019.18 1017.78 1017.24 1015.90
1020.82 1020.78 1020.90 1020.93 1020.91 1020.88 1021.01 1020.95 1020.86 1020.67 1020.27 1019.76 1018.69 1018.26 1017.88 1018.14 1018.13 1017.42 1016.23 1015.20 1015.27 1015.47 1015.39 1015.45 1015.10 1015.21 1015.10 1015.73 1016.25 1016.34 1016.24 1016.75 1017.18 1017.67 1017.86 1017.81 1018.75 1020.36 1021.21 1021.54 1021.36 1020.57 1020.32 1019.42 1018.10 1016.88 1015.09
1020.64 1020.63 1020.64 1020.73 1020.64 1020.73 1020.62 1020.73 1020.67 1020.63 1020.32 1019.81 1018.79 1018.03 1018.12 1018.30 1017.96 1016.96 1015.74 1015.42 1015.51 1015.61 1015.61 1015.31 1015.07 1015.27 1015.24 1015.30 1015.62 1016.01 1016.34 1017.28 1017.52 1018.04 1018.13 1018.17 1018.50 1020.27 1020.86 1020.95 1020.54 1020.95 1020.08 1019.65 1018.91 1017.67 1015.96
1020.20 1020.31 1020.39 1020.57 1020.63 1020.50 1020.55 1020.46 1020.44 1020.36 1020.20 1019.63 1018.72 1018.01 1018.25 1018.35 1017.62 1017.09 1016.09 1015.92 1015.82 1015.48 1015.66 1015.43 1015.22 1014.97 1015.11 1015.39 1015.54 1016.03 1016.53 1017.53 1018.25 1018.23 1018.24 1018.39 1018.45 1018.76 1019.53 1020.64 1021.00 1020.68 1019.89 1019.39 1018.33 1018.07 1017.36
1019.62 1019.89 1019.93 1020.26 1020.41 1020.27 1020.32 1020.33 1020.41 1020.36 1020.13 1019.46 1018.50 1018.09 1018.20 1018.19 1017.08 1016.66 1016.60 1016.34 1015.99 1015.57 1015.25 1015.32 1015.17 1015.10 1015.22 1015.32 1015.81 1016.33 1017.19 1018.54 1018.92 1018.77 1018.56 1018.46 1018.33 1018.25 1019.12 1020.42 1020.73 1020.36 1019.95 1019.58 1019.45 1018.45 1016.76
1018.82 1019.02 1019.41 1019.75 1019.97 1020.12 1020.26 1020.20 1020.17 1020.12 1020.14 1019.98 1018.80 1018.09 1017.93 1017.94 1017.74 1016.84 1016.45 1016.13 1015.85 1015.59 1015.29 1015.22 1015.15 1015.30 1015.38 1015.51 1016.10 1016.44 1017.21 1018.68 1019.45 1019.36 1019.19 1018.68 1018.08 1017.44 1017.63 1018.07 1018.69 1019.29 1019.49 1019.60 1018.81 1017.98 1015.77
1018.14 1018.24 1018.52 1019.05 1019.50 1019.69 1020.05 1020.32 1020.17 1020.17 1019.95 1019.96 1019.09 1018.03 1017.87 1017.49 1017.37 1017.10 1016.71 1016.21 1015.60 1015.44 1015.55 1015.20 1015.16 1015.00 1014.91 1015.20 1015.74 1016.21 1017.23 1018.51 1019.35 1019.56 1019.51 1018.91 1018.05 1017.74 1017.20 1017.53 1018.17 1018.29 1018.33 1018.62 1018.35 1016.33 1015.42
1017.17 1017.65 1018.26 1018.55 1018.69 1019.04 1019.64 1020.01 1020.22 1020.24 1020.03 1019.53 1018.68 1018.64 1018.78 1018.14 1017.73 1017.37 1016.98 1016.20 1015.69 1015.37 1015.32 1015.05 1014.87 1014.84 1015.08 1015.04 1015.11 1015.61 1016.57 1017.61 1017.83 1019.45 1019.37 1019.18 1018.27 1018.03 1017.29 1017.40 1017.69 1017.68 1017.39 1017.15 1017.00 1016.43 1015.22
1015.96 1016.62 1017.08 1018.08 1018.38 1018.73 1018.95 1019.60 1019.95 1020.07 1020.23 1019.36 1018.82 1018.80 1018.23 1018.10 1017.95 1017.57 1016.62 1016.00 1015.61 1015.48 1015.32 1015.13 1014.93 1015.18 1015.55 1015.48 1015.55 1015.97 1016.27 1017.00 1017.35 1018.00 1018.60 1018.84 1018.34 1018.11 1016.94 1017.24 1017.35 1016.76 1015.11 1015.29 1015.52 1015.20 1014.49
1014.92 1015.62 1016.12 1016.97 1017.65 1018.17 1018.71 1018.98 1019.37 1019.74 1019.94 1019.68 1018.76 1018.17 1017.97 1017.59 1017.46 1017.02 1016.64 1016.45 1015.99 1015.80 1015.58 1015.76 1015.90 1015.80 1016.47 1016.46 1016.43 1016.61 1016.84 1017.38 1017.82 1018.47 1018.53 1018.46 1018.27 1018.13 1017.16 1016.90 1016.01 1014.00 1014.35 1014.45 1014.42 1013.57 1013.48
1013.73 1014.61 1015.22 1015.79 1016.79 1017.21 1017.92 1018.66 1019.02 1019.11 1019.56 1019.59 1019.30 1018.72 1017.88 1017.39 1017.22 1016.85 1016.84 1016.51 1016.28 1016.34 1016.43 1016.48 1016.92 1017.30 1017.15 1016.84 1016.70 1016.81 1017.06 1017.27 1017.77 1018.62 1018.91 1018.84 1018.33 1018.07 1017.44 1016.13 1014.25 1013.65 1014.28 1014.32 1014.00 1012.45 1012.23
1012.33 1013.37 1014.16 1015.21 1015.78 1016.18 1017.36 1017.83 1018.53 1018.94 1019.18 1019.61 1019.18 1019.04 1018.65 1017.61 1016.71 1016.45 1016.47 1016.15 1015.88 1016.09 1016.76 1017.22 1017.84 1018.15 1017.85 1017.11 1016.99 1016.55 1015.94 1015.85 1016.99 1018.19 1019.14 1019.08 1018.76 1018.07 1017.77 1016.18 1014.25 1013.08 1013.77 1014.14 1013.82 1012.44 1012.26
1011.13 1012.01 1013.00 1014.03 1015.16 1015.55 1016.21 1017.18 1017.76 1018.57 1018.94 1019.21 1018.91 1018.83 1018.80 1018.13 1016.99 1016.85 1016.34 1015.97 1015.89 1016.02 1016.19 1017.00 1017.63 1018.28 1018.12 1017.35 1016.91 1016.38 1015.57 1015.54 1015.75 1016.44 1017.82 1018.45 1018.62 1017.71 1016.65 1015.71 1014.01 1013.00 1013.76 1014.53 1013.80 1012.59 1012.14
1009.75 1010.90 1011.95 1012.73 1013.97 1014.61 1015.43 1016.41 1017.08 1017.80 1018.53 1018.87 1018.64 1018.53 1018.47 1018.10 1017.00 1016.93 1016.75 1016.62 1016.41 1016.11 1015.96 1017.23 1017.75 1017.88 1017.99 1017.26 1016.52 1015.84 1015.42 1014.87 1014.92 1015.14 1015.79 1015.91 1016.67 1016.72 1016.42 1015.57 1013.90 1013.18 1014.47 1014.38 1013.09 1012.45 1012.69
1008.23 1009.51 1010.77 1011.84 1012.52 1013.53 1014.44 1015.78 1016.38 1017.19 1018.05 1018.59 1018.59 1018.30 1018.65 1018.61 1017.66 1017.16 1016.90 1016.81 1016.66 1016.26 1015.89 1016.71 1016.40 1016.07 1016.10 1016.08 1016.23 1015.73 1015.36 1015.01 1014.24 1013.91 1015.32 1014.87 1014.10 1014.25 1014.31 1012.99 1012.68 1013.04 1012.80 1012.79 1012.86 1012.93 1012.75
Wind_Speed
3 2 3 5 7 8 10 10 10 11 12 12 13 13 13 13 13 13 12 12 11 11 11 10 9 8 5 2 4 8 5 2 1 1 1 3 4 4 4 5 3 6 5 5 7 7 7
4 2 2 4 6 8 9 10 11 12 12 13 13 13 13 13 13 13 12 11 13 11 10 9 7 6 4 2 2 3 8 3 6 2 3 2 3 9 9 4 3 5 8 9 4 6 5
6 4 2 2 4 6 8 10 10 11 13 13 14 14 14 13 12 13 14 13 13 11 10 8 4 2 2 4 1 4 7 5 4 3 5 5 8 2 6 8 6 8 7 6 5 4 3
7 5 3 1 3 5 7 8 9 10 12 14 14 14 15 14 14 14 14 14 14 11 7 5 2 3 3 1 1 2 3 10 12 16 15 12 12 12 3 11 5 3 4 4 5 6 4
6 5 2 0 2 4 5 7 8 9 11 14 15 16 15 15 15 17 16 15 11 5 1 5 3 3 3 2 3 2 3 6 7 8 8 5 4 5 5 5 5 4 2 1 5 6 4
9 4 1 3 4 5 6 7 7 9 10 12 13 14 15 17 17 17 17 7 2 2 4 2 1 4 3 2 2 1 3 2 1 4 5 1 3 3 4 5 4 1 3 2 3 6 7
10 11 10 9 8 7 7 8 7 8 9 11 13 15 15 17 17 16 8 3 4 5 3 2 2 2 4 3 1 3 2 4 2 2 3 2 5 2 3 3 3 1 2 4 1 3 4
11 9 9 8 7 7 8 7 6 6 8 10 12 15 17 19 18 8 4 3 5 5 3 1 1 1 2 2 3 2 2 5 3 3 2 5 1 3 5 3 1 2 4 2 2 2 5
8 8 8 8 11 13 10 10 4 5 8 10 12 15 17 22 17 1 4 4 5 4 5 2 1 1 1 3 2 3 2 2 1 3 2 5 4 5 2 2 3 3 5 1 4 2 4
4 6 7 10 11 11 11 11 1 3 8 11 12 14 17 24 1 4 3 6 4 3 5 4 2 2 1 2 2 2 3 2 2 2 2 2 3 3 3 2 2 5 2 1 3 5 3
3 5 6 6 8 11 12 10 8 6 6 11 12 13 15 10 5 1 4 7 3 4 5 3 3 2 1 1 3 3 3 1 2 4 4 4 3 3 4 2 1 3 0 2 3 4 4
2 3 3 6 6 9 11 13 10 10 8 8 12 11 14 3 3 2 7 4 4 5 3 3 2 2 4 2 2 2 1 6 2 2 3 3 1 2 3 3 2 7 2 3 3 4 5
2 2 2 4 1 5 8 10 11 11 11 10 12 11 10 4 2 5 6 3 5 5 3 4 2 4 3 4 4 4 4 5 3 4 4 2 2 3 1 3 4 4 4 2 4 4 3
6 4 3 3 3 1 5 9 10 11 13 13 11 13 2 4 5 7 4 4 6 2 2 2 2 3 4 6 3 4 5 5 5 4 2 4 4 2 1 2 4 1 4 3 5 4 4
8 6 3 1 1 4 5 7 10 11 12 12 13 1 2 0 5 4 5 6 3 4 3 5 4 4 4 3 3 5 6 4 2 9 5 3 2 2 3 2 2 4 3 3 2 1 5
10 8 6 3 2 3 5 7 9 12 12 12 2 2 1 4 1 4 6 4 3 2 3 2 3 3 3 4 4 4 5 3 3 3 3 3 3 1 2 2 3 2 2 3 3 3 4
12 11 9 6 3 1 2 6 8 11 13 8 1 3 4 3 3 5 9 6 4 4 4 4 2 2 3 4 6 4 1 2 2 5 2 3 3 4 1 6 2 4 3 1 2 3 4
14 13 11 7 4 3 2 4 6 8 14 3 1 4 3 2 6 1 7 5 3 3 3 4 3 4 5 4 5 4 3 2 1 5 6 3 1 4 1 2 2 3 2 5 3 4 0
18 15 12 10 7 5 1 2 4 5 8 1 2 0 3 3 6 6 2 4 3 5 6 6 5 5 3 5 4 4 2 2 2 5 4 7 4 3 4 4 2 5 4 3 2 1 7
21 18 15 13 9 7 4 2 1 1 4 3 3 5 4 4 1 6 6 5 7 4 5 4 2 3 4 5 3 1 5 2 1 2 2 4 3 5 7 2 3 5 6 9 8 5 4
21 20 18 16 12 9 7 4 1 1 3 3 3 2 1 5 7 7 6 3 10 8 5 6 5 10 8 6 5 5 3 3 2 4 2 4 5 5 8 7 5 7 7 13 14 17 11
22 20 19 18 15 12 10 7 4 2 2 3 4 3 1 1 1 11 7 8 9 6 6 6 8 8 11 10 9 7 6 6 5 6 6 3 3 3 5 1 7 7 13 17 18 17 19
24 22 21 20 17 14 14 10 6 4 4 3 3 2 2 4 4 6 8 16 12 8 6 4 9 8 8 9 6 0 0 3 1 5 11 7 5 5 5 2 2 9 14 15 8 10 10
26 24 22 21 20 17 16 13 10 7 7 2 1 2 3 3 6 7 3 9 13 11 11 3 5 6 2 10 12 10 10 8 5 4 2 7 6 3 3 1 9 3 2 3 12 11 18
29 27 24 23 22 19 18 16 12 8 8 3 1 2 4 4 6 7 7 4 2 5 7 5 1 4 9 3 3 4 3 3 4 1 3 4 4 3 4 6 10 13 5 7 7 5 3
31 29 27 24 23 21 19 18 14 12 9 3 3 1 2 2 7 10 8 9 6 6 4 2 3 4 1 2 2 6 7 5 6 4 1 2 1 3 3 4 6 2 3 3 3 6 2
32 31 29 27 24 22 22 20 17 14 13 4 3 6 2 2 4 6 7 9 5 4 3 4 6 5 3 3 5 6 7 2 7 8 7 5 3 8 9 6 8 7 8 5 3 2 3
33 32 30 29 27 24 22 21 18 17 15 7 2 6 2 3 4 5 3 4 3 4 8 6 5 3 2 5 5 5 7 9 6 3 8 10 10 6 4 5 10 7 7 5 5 3 4
34 34 33 31 29 26 24 22 20 19 16 9 3 4 2 2 3 1 3 3 3 3 5 6 3 4 5 5 4 2 4 4 8 14 3 7 9 6 11 6 5 7 1 1 1 4 6
Wind_Direction
310 354 8 21 13 14 14 13 9 6 8 8 2 1 357 352 350 343 333 326 323 323 323 323 326 330 277 195 66 349 319 128 42 205 159 197 191 133 110 101 104 87 118 80 101 106 102
248 272 338 5 13 10 12 10 8 5 1 0 359 357 351 346 340 336 328 322 317 316 316 316 320 323 269 229 51 42 19 88 53 108 81 3 100 101 98 68 9 108 116 114 116 116 117
244 227 249 328 4 8 7 6 5 3 360 355 354 350 344 337 332 328 323 318 310 308 305 301 309 295 259 58 26 38 46 28 14 88 98 75 113 31 131 115 124 133 121 137 151 143 119
269 237 242 303 352 -0 4 359 358 356 358 353 351 346 340 332 327 322 319 314 306 302 291 273 176 234 70 76 67 61 103 78 69 70 94 90 89 89 51 120 135 185 211 209 147 182 136
245 210 220 290 358 356 356 351 353 353 350 349 348 343 338 330 326 322 317 314 303 312 340 175 207 269 122 135 177 59 341 109 100 87 82 103 75 87 161 199 170 184 314 255 163 199 163
58 63 90 44 20 1 349 344 345 349 348 346 342 338 334 330 326 325 315 285 304 232 148 207 120 226 162 142 97 59 56 142 107 139 145 139 112 155 172 237 340 336 263 219 287 155 216
68 54 43 41 25 3 -0 339 333 342 342 344 340 335 331 329 326 329 323 207 206 176 217 294 75 82 130 102 185 65 20 162 170 228 233 85 243 305 33 35 11 349 280 283 141 119 255
64 55 49 39 20 2 348 321 312 334 340 342 341 337 333 329 327 324 286 42 32 350 286 12 50 72 83 169 143 104 278 207 213 235 221 206 286 88 103 111 274 262 281 274 151 133 245
71 57 42 29 25 7 351 320 283 330 346 346 340 338 334 329 319 292 41 51 322 293 269 82 6 166 78 197 116 119 295 165 201 202 247 288 82 143 193 164 252 258 281 277 319 181 235
59 59 37 38 21 356 359 351 300 331 343 335 339 339 338 328 294 342 95 337 319 197 266 119 145 95 126 144 124 13 23 313 133 223 148 45 124 197 187 238 257 288 74 286 266 274 340
11 28 25 45 19 3 4 3 4 330 323 332 331 340 340 347 330 205 359 324 259 227 266 100 118 30 86 221 103 68 31 230 217 140 239 82 168 188 232 63 220 38 357 287 267 266 278
29 28 2 337 10 359 354 357 360 348 325 335 324 334 341 235 243 328 309 289 224 227 243 137 129 163 178 149 117 121 97 70 74 127 49 71 69 357 31 86 73 132 204 225 232 243 229
214 277 294 318 32 12 351 351 352 354 350 334 321 322 323 306 348 333 303 218 212 245 116 149 188 175 218 172 163 176 166 178 226 220 198 157 140 110 230 198 142 218 258 253 214 213 13
222 232 270 297 341 349 -0 347 347 348 347 335 319 316 156 260 307 302 249 202 227 48 226 98 139 162 202 174 178 167 163 214 202 199 254 264 193 200 58 326 350 182 305 316 297 317 355
224 215 222 257 350 344 336 343 341 341 340 334 306 347 263 118 295 247 220 213 228 197 125 165 152 219 195 203 285 215 222 210 184 198 231 212 153 97 21 349 309 125 221 33 277 181 270
224 211 199 173 100 32 342 327 333 339 340 333 345 318 213 351 305 241 214 225 223 221 146 176 238 224 228 175 218 220 198 140 164 187 295 133 223 67 90 254 76 299 58 212 179 293 278
226 216 205 198 178 129 356 337 329 336 336 313 260 210 78 335 242 209 219 213 207 220 210 201 208 215 232 194 217 221 227 144 200 141 163 178 253 111 195 202 206 157 199 181 310 289 291
227 218 210 211 212 169 341 332 336 344 329 267 170 203 51 251 195 241 212 195 168 190 165 210 229 220 220 195 207 235 249 303 140 166 165 143 299 223 124 83 332 304 283 256 239 172 294
223 221 214 220 220 185 203 323 340 353 343 274 198 44 92 257 217 208 178 226 235 193 194 185 221 218 180 208 228 222 203 61 193 193 173 173 179 246 175 175 182 241 197 179 76 135 217
220 216 218 219 217 193 199 221 338 338 338 270 197 191 152 197 326 253 192 213 205 219 225 182 174 155 168 211 198 229 204 149 283 247 74 195 193 235 267 352 107 199 195 209 215 220 218
218 215 214 214 211 197 202 221 213 286 322 248 222 199 21 188 213 214 216 216 205 199 221 199 191 221 209 217 184 220 162 155 173 174 181 237 241 218 261 239 209 252 215 191 207 232 236
212 213 217 213 203 197 201 206 210 242 286 221 188 196 182 98 150 208 192 211 205 198 192 196 222 211 214 224 228 252 178 209 210 170 197 195 216 180 263 201 222 255 245 231 228 249 261
205 208 205 212 207 202 191 195 200 209 234 222 139 127 255 124 165 195 216 222 213 214 213 253 209 209 209 228 238 32 225 32 189 186 187 185 184 184 266 139 239 256 240 215 204 221 225
201 202 200 205 205 201 195 193 195 208 228 311 262 156 197 201 206 214 224 217 223 214 239 182 205 209 115 121 112 105 87 88 112 84 206 179 186 187 269 231 251 310 95 199 218 243 217
198 198 198 199 204 196 194 196 197 198 187 223 284 228 194 235 222 216 217 215 203 228 240 244 108 16 147 142 115 158 153 171 166 71 217 284 181 178 240 228 306 293 199 176 192 291 227
197 196 193 197 199 191 195 195 198 196 187 201 228 258 255 200 225 221 207 201 197 193 175 150 70 164 264 151 147 205 212 205 191 170 87 142 273 247 167 228 251 59 141 187 157 285 359
197 194 193 192 199 192 194 198 197 198 189 184 224 195 208 208 227 176 210 211 180 168 185 146 158 176 289 156 196 215 231 213 210 192 168 168 200 220 219 251 278 254 141 153 241 20 31
194 194 193 191 194 190 192 200 196 192 192 177 213 200 210 222 227 202 203 194 156 206 201 130 143 176 124 192 202 192 238 209 216 166 178 176 168 190 183 209 259 121 102 202 11 23 353
192 194 193 194 189 186 185 192 194 188 187 175 223 176 164 235 318 300 265 260 285 303 199 180 318 160 174 187 215 225 196 183 230 239 156 230 220 201 206 211 47 207 270 185 7 307 310